C/2016 VZ18 ( PanSTARRS )

Japanese version
Home page
Updated on February 5, 2017

---------------------------------------------------------------------

* Profile

Discovery Date November 6, 2016
Magnitude 21.8 mag
Discoverer Pan-STARRS 1 telescope (Haleakala)

* Orbital Elements

Epoch 2017 Feb. 16.0 TT = JDT 2457800.5
T 2017 Mar. 7.37988 TT                                  MPC
q   0.9102677            (2000.0)            P               Q
z  +0.0051364      Peri.   36.38565     -0.66049037     -0.63393674
 +/-0.0000036      Node    98.95510     +0.55612309     -0.77306556
e   0.9953245      Incl.   24.03558     +0.50445969     +0.02222277
From 86 observations 2016 Oct. 8-2017 Jan. 27, mean residual 0".38.

* Finding Charts

* Magnitudes Graph

        m1 = 18.0 + 5 log d + 10.0 log r

---------------------------------------------------------------------

The orbital elements are published on M.P.E.C. 2017-B83.
The charts are made with StellaNavigator Ver.10 (AstroArts).
The magnitudes graphs are made with Comet for Windows.

---------------------------------------------------------------------

Copyright(C) Seiichi Yoshida (comet@aerith.net). All rights reserved.